[[{"header":{"parameterUnit":"m.s-1","parameterCategory":2,"la1":30.2991,"la2":30.254,"lo1":-89.0895,"lo2":-89.0444,"dy":0.0017,"dx":0.0017,"nx":28,"ny":28,"refTime":"2024-06-22T03:00:00:Z","depth":"0","parameterNumber":2,"parameterNumberName":"U-component_of_CURRENTS"},"data":[0,0,0,0,0,0,0,0,0,0,0,0,0,0,0,0,0,0,0,0,0,0,0,0,0,0,0,0,0,0,0,0,0,0,0,0,0,0,0,0,0,0,0,0,0,0,0,0,0,0,0,0,0,0,0,0,0,0,0.4892,0.4892,0,0.4927,0.4927,0.4928,0.4919,0.4919,0.4918,0.4917,0.4911,0.4911,0.4912,0,0,0,0,0,0,0,0,0,0,0,0,0,0.4785,0.4787,0.4892,0.4892,0.4893,0.4927,0.4927,0.4928,0.4919,0.4918,0.4918,0.4917,0.4911,0.4911,0.4912,0,0,0,0,0,0,0,0,0,0,0,0,0,0.4828,0.4788,0.4892,0.4892,0.4892,0.4927,0.4927,0.4928,0.492,0.4918,0.4917,0.4916,0.491,0.4911,0.4912,0.494,0,0,0.4915,0.4915,0,0,0,0,0,0,0,0,0.4825,0.4832,0.4891,0.4892,0.4892,0.4917,0.4887,0.493,0.492,0.491,0.4917,0.4916,0.4909,0.491,0.4921,0.494,0.494,0.4915,0.4915,0.4915,0.4916,0,0,0,0,0,0,0,0.4822,0.483,0.4907,0.4892,0.4892,0.4879,0.4884,0.4895,0.4916,0.4911,0.491,0.4913,0.4909,0.492,0.4921,0.4939,0.4915,0.4915,0.4916,0.4916,0.499,0.4992,0,0,0,0,0,0,0.482,0.4828,0.4906,0.4908,0.4854,0.4882,0.4887,0.4911,0.4916,0.4916,0.4914,0.4912,0.492,0.492,0.492,0.4931,0.4915,0.4916,0.4917,0.4989,0.4991,0.4992,0,0,0,0,0,0,0.4818,0.4827,0.4904,0.4866,0.4875,0.4885,0.4911,0.4912,0.4913,0.4919,0.4918,0.4912,0.4919,0.4919,0.4926,0.4931,0.4917,0.4917,0.4987,0.4989,0.4992,0.4967,0,0,0,0,0,0,0.4815,0.4827,0.4833,0.4867,0.4877,0.4907,0.4912,0.4914,0.4917,0.4915,0.4918,0.4917,0.4918,0.4924,0.4926,0.4932,0.4918,0.4985,0.4988,0.4991,0.4966,0.4968,0.497,0,0,0,0,0,0.4811,0.4805,0.4834,0.4842,0.4889,0.4907,0.491,0.4913,0.4918,0.4912,0.4923,0.4916,0.4944,0.4926,0.4928,0.4934,0.4984,0.4987,0.4991,0.4965,0.4968,0.497,0,0,0,0,0,0,0.4711,0.4806,0.4836,0.4847,0.4875,0.4904,0.4891,0.4912,0.492,0.4912,0.4926,0.4926,0.4944,0.4948,0.4928,0.497,0.4967,0.4971,0.4947,0.495,0.4952,0.5028,0.4919,0,0,0,0,0,0.4711,0.4756,0.4817,0.4817,0.4836,0.4872,0.4877,0.4888,0.4904,0.4906,0.4918,0.4936,0.4964,0.4959,0.4984,0.4992,0.5063,0.5004,0.5006,0.5008,0.5075,0.5167,0.5184,0.5003,0.5003,0.5003,0,0,0.4665,0.4722,0.4741,0.4804,0.4826,0.4869,0.4871,0.4872,0.4908,0.4904,0.4935,0.4945,0.4974,0.4992,0.5,0.4986,0.5092,0.5012,0.5012,0.5081,0.5173,0.5191,0.5207,0.5006,0.5005,0.5005,0,0,0.4612,0.4657,0.4693,0.4734,0.4783,0.4826,0.4832,0.4874,0.4888,0.493,0.4941,0.4969,0.4994,0.5022,0.5042,0.5077,0.5111,0.5059,0.5112,0.5197,0.5214,0.5229,0.5321,0.5345,0.5044,0.5044,0.5044,0,0.4562,0.4628,0.4688,0.4735,0.4773,0.4817,0.4858,0.4887,0.4924,0.4953,0.4938,0.5036,0.5034,0.5097,0.5106,0.5085,0.5139,0.5085,0.5201,0.5217,0.5234,0.5325,0.5351,0.5043,0.5043,0.5043,0.5043,0,0.4566,0.4612,0.462,0.4738,0.4776,0.4802,0.4878,0.4912,0.4952,0.4997,0.5065,0.5084,0.5155,0.5134,0.5134,0.5231,0.5234,0.5198,0.5191,0.525,0.5342,0.537,0.5042,0.5042,0.5042,0.5043,0,0,0.4513,0.4615,0.4625,0.4689,0.4789,0.4832,0.4895,0.4989,0.5067,0.5092,0.5197,0.5228,0.5252,0.5282,0.5266,0.5327,0.5457,0.5308,0.5313,0.5397,0.566,0.5582,0.5605,0.5422,0.5427,0.5431,0.567,0,0.4517,0.46,0.4658,0.4749,0.4814,0.4888,0.4968,0.5049,0.5123,0.5228,0.5262,0.5357,0.5299,0.5342,0.5391,0.5466,0.5536,0.5399,0.5598,0.5607,0.5526,0.5637,0.5356,0.5539,0.5698,0.5703,0.5706,0,0.4551,0.4611,0.4692,0.482,0.4856,0.492,0.5088,0.5159,0.5296,0.5355,0.5439,0.5485,0.5599,0.5538,0.5714,0.5623,0.5668,0.5705,0.5713,0.5689,0.5582,0.5513,0.5585,0.5435,0.575,0.5747,0.5744,0,0.4563,0.4654,0.4728,0.477,0.4912,0.4969,0.5052,0.5195,0.5299,0.5454,0.5569,0.5664,0.5778,0.5842,0.5915,0.5834,0.6115,0.6004,0.598,0.5974,0.5811,0.5781,0.5767,0.6156,0.6156,0.6155,0.6154,0,0.46,0.4667,0.4738,0.4796,0.4915,0.4995,0.5149,0.5245,0.5413,0.5555,0.5641,0.5793,0.5868,0.6009,0.6017,0.6116,0.6203,0.6064,0.6053,0.5789,0.5756,0.5677,0.5612,0.6164,0.6162,0.616,0.6159,0,0.4651,0.4676,0.4796,0.4909,0.4934,0.5043,0.5211,0.5318,0.5484,0.5683,0.5751,0.5964,0.6134,0.6197,0.6346,0.628,0.6179,0.6355,0.6047,0.5995,0.5763,0.5706,0.5594,0.5439,0.637,0.637,0.6369,0,0.4698,0.4753,0.488,0.4921,0.4975,0.5104,0.5179,0.5342,0.5456,0.5777,0.5871,0.6122,0.6246,0.6454,0.6384,0.641,0.6206,0.6169,0.5957,0.578,0.5711,0.5487,0.5347,0.5729,0.5724,0.5719,0.5716,0,0.4823,0.4866,0.4961,0.4986,0.5055,0.5159,0.5267,0.5368,0.5565,0.5722,0.5943,0.6083,0.6287,0.6187,0.6236,0.6202,0.5849,0.6079,0.597,0.5307,0.4992,0.4823,0.5561,0.5676,0.568,0.5683,0.5685,0.5687,0.4932,0.4994,0.5036,0.5054,0.5105,0.5134,0.5157,0.5272,0.5406,0.5525,0.5813,0.5856,0.5909,0.5925,0.588,0.5613,0.5621,0.5392,0.5378,0.5199,0.4915,0.5589,0.563,0.5634,0.5637,0.5639,0.5642,0,0.4981,0.4992,0.505,0.5034,0.4993,0.5043,0.5125,0.5079,0.5097,0.5255,0.5363,0.5339,0.5263,0.5257,0.5118,0.4929,0.4677,0.4794,0.44,0.4326,0.4999,0.4834,0.4611,0.4611,0.4611,0.4611,0.4611,0.4611,0.5004,0.5015,0.4985,0.4865,0.4826,0.4715,0.471,0.4665,0.4695,0.4603,0.4532,0.4613,0.4773,0.4755,0.4535,0.442,0.4093,0.3889,0.395,0.4407,0.4459,0.4508,0.4337,0.4013,0.4012,0.3035,0.3028,0.3023]},{"header":{"parameterUnit":"m.s-1","parameterCategory":2,"la1":30.2991,"la2":30.254,"lo1":-89.0895,"lo2":-89.0444,"dy":0.0017,"dx":0.0017,"nx":28,"ny":28,"refTime":"2024-06-22T03:00:00:Z","depth":"0","parameterNumber":3,"parameterNumberName":"V-component_of_CURRENTS"},"data":[0,0,0,0,0,0,0,0,0,0,0,0,0,0,0,0,0,0,0,0,0,0,0,0,0,0,0,0,0,0,0,0,0,0,0,0,0,0,0,0,0,0,0,0,0,0,0,0,0,0,0,0,0,0,0,0,0,0,-0.0248,-0.0248,0,-0.0283,-0.0284,-0.0284,-0.034,-0.034,-0.0341,-0.0342,-0.039,-0.0391,-0.0392,0,0,0,0,0,0,0,0,0,0,0,0,0,-0.0187,-0.0189,-0.0248,-0.0248,-0.0248,-0.0283,-0.0284,-0.0284,-0.034,-0.034,-0.0341,-0.0342,-0.039,-0.0391,-0.0392,0,0,0,0,0,0,0,0,0,0,0,0,0,-0.022,-0.0189,-0.0248,-0.0277,-0.028,-0.0283,-0.0284,-0.0285,-0.0339,-0.034,-0.0342,-0.0343,-0.039,-0.0391,-0.0392,-0.0375,0,0,-0.0394,-0.0395,0,0,0,0,0,0,0,0,-0.0218,-0.0223,-0.0273,-0.0275,-0.0279,-0.0305,-0.028,-0.0315,-0.0339,-0.032,-0.0342,-0.0343,-0.036,-0.0364,-0.0372,-0.0378,-0.038,-0.0395,-0.0395,-0.0396,-0.0396,0,0,0,0,0,0,0,-0.0216,-0.0221,-0.0265,-0.0273,-0.0276,-0.0275,-0.0282,-0.0287,-0.0336,-0.0322,-0.0325,-0.0324,-0.0363,-0.0371,-0.0374,-0.0381,-0.0395,-0.0395,-0.0396,-0.0396,-0.0364,-0.0363,0,0,0,0,0,0,-0.0207,-0.0219,-0.0263,-0.0265,-0.0247,-0.0275,-0.0283,-0.0298,-0.0336,-0.0342,-0.0323,-0.0326,-0.0369,-0.0372,-0.0375,-0.0308,-0.0395,-0.0396,-0.0397,-0.0365,-0.0364,-0.0362,0,0,0,0,0,0,-0.0206,-0.0211,-0.0262,-0.024,-0.0246,-0.0275,-0.0292,-0.0298,-0.0307,-0.0336,-0.0343,-0.0325,-0.037,-0.0374,-0.0357,-0.0312,-0.0397,-0.0398,-0.0367,-0.0365,-0.0363,-0.0204,0,0,0,0,0,0,-0.0204,-0.0211,-0.0203,-0.024,-0.0247,-0.0235,-0.0291,-0.0298,-0.0303,-0.0308,-0.034,-0.0346,-0.0371,-0.0355,-0.0358,-0.0315,-0.0398,-0.0369,-0.0366,-0.0363,-0.0211,-0.0197,-0.0185,0,0,0,0,0,-0.0202,-0.0162,-0.0203,-0.0207,-0.0241,-0.0232,-0.0234,-0.0261,-0.0302,-0.028,-0.0306,-0.0345,-0.0342,-0.0354,-0.0358,-0.0314,-0.037,-0.0367,-0.0364,-0.0217,-0.02,-0.0185,0,0,0,0,0,0,-0.0101,-0.0166,-0.0211,-0.0187,-0.0206,-0.024,-0.0204,-0.0254,-0.0261,-0.0265,-0.0317,-0.0322,-0.0293,-0.0329,-0.0342,-0.0301,-0.0366,-0.0363,-0.0254,-0.0238,-0.0225,-0.0167,-0.0399,0,0,0,0,0,-0.0087,-0.0088,-0.0145,-0.0118,-0.0124,-0.0175,-0.0173,-0.0205,-0.0222,-0.0229,-0.0259,-0.0283,-0.0283,-0.028,-0.029,-0.0259,-0.0281,-0.024,-0.0226,-0.0215,-0.0172,-0.0167,-0.0148,-0.0352,-0.0352,-0.0352,0,0,-0.0034,-0.0068,-0.0066,-0.0098,-0.0112,-0.0085,-0.0175,-0.0158,-0.0133,-0.0229,-0.019,-0.0235,-0.0266,-0.0228,-0.022,-0.025,-0.0173,-0.0211,-0.02,-0.0163,-0.0161,-0.0141,-0.0123,-0.0349,-0.035,-0.035,0,0,0.0084,0.0035,0.0069,0.0056,0.0031,0.0003,0.0006,-0.0039,-0.0052,-0.0035,-0.0096,-0.0103,-0.0116,-0.0119,-0.0124,-0.0044,-0.0105,-0.007,0.0053,0.0058,0.0076,0.0091,0.0077,0.009,-0.006,-0.006,-0.006,0,0.0144,0.0166,0.0093,0.0127,0.0144,0.0048,0.0104,0.0087,0.0051,0.0061,0.0004,-0.0005,-0.0049,0.0014,0.0032,-0.0007,-0.0028,-0.0,0.0079,0.0094,0.0107,0.0089,0.0101,-0.0052,-0.0053,-0.0054,-0.0055,0,0.0273,0.0293,0.0331,0.0324,0.0337,0.0376,0.033,0.0335,0.0287,0.0256,0.0283,0.022,0.0219,0.0188,0.0138,0.0207,0.0154,0.0095,0.0049,0.0138,0.0112,0.0122,-0.0041,-0.0044,-0.0046,-0.0048,0,0,0.0381,0.0409,0.0419,0.0449,0.0436,0.0462,0.0518,0.0538,0.0577,0.0525,0.0587,0.0551,0.0483,0.0473,0.0393,0.0386,0.0433,0.0288,0.0284,0.0293,0.0436,0.0375,0.0379,0.0385,0.0388,0.039,0.0376,0,0.0497,0.0601,0.0585,0.0701,0.0747,0.0701,0.0765,0.0768,0.0744,0.0777,0.071,0.0728,0.0602,0.0594,0.0577,0.0475,0.047,0.0443,0.0333,0.033,0.0281,0.0393,0.0366,0.035,0.0386,0.0387,0.0388,0,0.0604,0.066,0.0788,0.0866,0.0887,0.0946,0.1017,0.1056,0.107,0.1053,0.1053,0.0979,0.098,0.0839,0.076,0.0746,0.062,0.0525,0.0521,0.0427,0.0291,0.0266,0.0366,0.0107,0.0403,0.0402,0.0401,0,0.0686,0.0797,0.0906,0.0931,0.1007,0.1071,0.1115,0.1144,0.1189,0.1226,0.1262,0.1227,0.1222,0.1091,0.088,0.0829,0.0773,0.0671,0.0505,0.0497,0.0439,0.0421,0.0299,0.0631,0.0631,0.0631,0.0631,0,0.0784,0.0868,0.0956,0.101,0.1152,0.1171,0.1299,0.1328,0.1389,0.1484,0.1406,0.1485,0.1284,0.1206,0.099,0.08,0.0862,0.0574,0.0514,0.0488,0.0476,0.0216,0.0085,0.063,0.063,0.063,0.063,0,0.0837,0.0891,0.1017,0.1139,0.1185,0.1279,0.1402,0.1486,0.1535,0.1664,0.169,0.1695,0.1623,0.1386,0.1185,0.0956,0.0612,0.066,0.0634,0.0572,0.0167,0.0047,-0.0108,-0.0217,0.0503,0.0502,0.0501,0,0.0875,0.0946,0.1101,0.1178,0.1237,0.137,0.1463,0.1545,0.1639,0.1807,0.1891,0.1884,0.1936,0.1623,0.1212,0.0862,0.0598,0.0563,0.0461,0.0188,0.001,-0.0094,-0.0181,0.0432,0.0431,0.043,0.0429,0,0.0952,0.1,0.1101,0.125,0.1369,0.1508,0.1654,0.1755,0.1884,0.2038,0.2255,0.2337,0.2064,0.1741,0.1222,0.0948,0.0381,0.0525,0.0264,-0.001,-0.0147,-0.0296,0.0373,0.0418,0.0419,0.042,0.042,0.0421,0.1011,0.108,0.1201,0.1339,0.1472,0.1642,0.1782,0.1962,0.2182,0.2462,0.2517,0.2699,0.2176,0.151,0.1096,0.0277,0.0306,0.0012,-0.0097,-0.0167,-0.0304,0.034,0.0295,0.0295,0.0295,0.0296,0.0296,0,0.1082,0.1152,0.1282,0.1455,0.1597,0.1662,0.1908,0.2083,0.2387,0.2666,0.2893,0.2727,0.2075,0.1367,0.0281,-0.0265,-0.0452,-0.0557,-0.0716,-0.0765,-0.0174,-0.0213,-0.0395,-0.0394,-0.0394,-0.0394,-0.0394,-0.0393,0.1125,0.1239,0.1292,0.1524,0.1649,0.1879,0.2034,0.2331,0.2576,0.2937,0.3061,0.3118,0.2531,0.0686,-0.0591,-0.0869,-0.121,-0.1297,-0.145,-0.1081,-0.1038,-0.0996,-0.1065,-0.1422,-0.1423,-0.2007,-0.2013,-0.2017]}],[{"header":{"parameterUnit":"m.s-1","parameterCategory":2,"la1":30.2991,"la2":30.254,"lo1":-89.0895,"lo2":-89.0444,"dy":0.0017,"dx":0.0017,"nx":28,"ny":28,"refTime":"2024-06-22T03:00:00:Z","depth":"2","parameterNumber":2,"parameterNumberName":"U-component_of_CURRENTS"},"data":[0,0,0,0,0,0,0,0,0,0,0,0,0,0,0,0,0,0,0,0,0,0,0,0,0,0,0,0,0,0,0,0,0,0,0,0,0,0,0,0,0,0,0,0,0,0,0,0,0,0,0,0,0,0,0,0,0,0,0.3589,0.359,0,0.3718,0.372,0.3722,0.3795,0.3794,0.3794,0.3793,0.3791,0.3791,0.3791,0,0,0,0,0,0,0,0,0,0,0,0,0,0.3516,0.3517,0.3589,0.359,0.3591,0.3717,0.372,0.3722,0.3795,0.3794,0.3794,0.3793,0.3791,0.3791,0.3791,0,0,0,0,0,0,0,0,0,0,0,0,0,0.3593,0.3517,0.3589,0.3637,0.3642,0.3717,0.372,0.3723,0.3795,0.3794,0.3794,0.3793,0.3791,0.3791,0.3792,0.3807,0,0,0.3793,0.3793,0,0,0,0,0,0,0,0,0.3588,0.3596,0.3629,0.3634,0.3639,0.3733,0.3693,0.3742,0.3795,0.3745,0.3793,0.3793,0.3755,0.3758,0.3796,0.3807,0.3807,0.3793,0.3793,0.3794,0.3794,0,0,0,0,0,0,0,0.3583,0.3592,0.3648,0.363,0.3636,0.3689,0.3699,0.3704,0.3755,0.3749,0.3753,0.3756,0.3758,0.3796,0.3796,0.3807,0.3793,0.3794,0.3794,0.3794,0.3892,0.3894,0,0,0,0,0,0,0.3547,0.3586,0.3643,0.3651,0.3604,0.369,0.3702,0.371,0.3758,0.3764,0.3756,0.3758,0.3795,0.3796,0.3796,0.3839,0.3794,0.3794,0.3794,0.389,0.3893,0.3895,0,0,0,0,0,0,0.3545,0.3551,0.3638,0.3615,0.3629,0.369,0.37,0.3712,0.3766,0.3763,0.3768,0.3796,0.3795,0.3795,0.3798,0.3838,0.3794,0.3795,0.3887,0.3891,0.3894,0.3909,0,0,0,0,0,0,0.3543,0.355,0.358,0.3613,0.3629,0.3689,0.37,0.3715,0.3764,0.3769,0.3799,0.3798,0.3794,0.3798,0.3799,0.3838,0.3795,0.3884,0.3889,0.3893,0.3906,0.3913,0.3919,0,0,0,0,0,0.354,0.3555,0.3581,0.359,0.3656,0.3689,0.3704,0.375,0.3766,0.3796,0.3802,0.3798,0.3828,0.3798,0.38,0.384,0.3882,0.3887,0.3892,0.3903,0.3912,0.3919,0,0,0,0,0,0,0.3513,0.3564,0.3593,0.3619,0.3659,0.3698,0.3729,0.3762,0.38,0.38,0.3803,0.3802,0.3834,0.3835,0.3803,0.3888,0.3865,0.3871,0.3873,0.3881,0.3887,0.3927,0.3796,0,0,0,0,0,0.3527,0.3557,0.3606,0.3619,0.3646,0.3698,0.3729,0.3756,0.3776,0.3797,0.3832,0.3853,0.3859,0.3862,0.3885,0.3908,0.3942,0.3947,0.3953,0.3958,0.3996,0.4048,0.4062,0.3912,0.3912,0.3912,0,0,0.3512,0.3542,0.356,0.3619,0.3655,0.3694,0.3717,0.3753,0.3785,0.3784,0.3855,0.3878,0.3873,0.3909,0.3925,0.3908,0.4023,0.3965,0.3969,0.4004,0.4054,0.4069,0.4082,0.3916,0.3915,0.3914,0,0,0.3494,0.3533,0.3573,0.3605,0.3662,0.3695,0.3707,0.3783,0.3825,0.3863,0.3887,0.3931,0.395,0.398,0.3977,0.4035,0.4059,0.4054,0.4108,0.4156,0.4169,0.418,0.425,0.4267,0.4051,0.4051,0.4051,0,0.3501,0.3531,0.3584,0.3621,0.3648,0.3693,0.3735,0.3772,0.3845,0.3892,0.3878,0.3981,0.3983,0.4027,0.4062,0.4049,0.4093,0.4064,0.4163,0.4175,0.4186,0.4255,0.4274,0.4052,0.4052,0.4052,0.4052,0,0.3496,0.3544,0.3552,0.3625,0.3671,0.369,0.3749,0.3818,0.3863,0.3915,0.4,0.4018,0.4084,0.4098,0.4087,0.4191,0.4203,0.4163,0.4134,0.4201,0.427,0.429,0.4054,0.4053,0.4053,0.4053,0,0,0.3482,0.355,0.3562,0.36,0.3672,0.37,0.3766,0.3856,0.3908,0.3984,0.4071,0.4112,0.417,0.4179,0.4201,0.4257,0.4371,0.4261,0.4262,0.4318,0.4512,0.441,0.4421,0.4345,0.4348,0.4351,0.453,0,0.3485,0.3537,0.3584,0.3639,0.3678,0.3745,0.379,0.3873,0.3948,0.4048,0.4099,0.4185,0.4175,0.4232,0.4278,0.4377,0.4424,0.4329,0.4453,0.4458,0.4347,0.444,0.409,0.4211,0.4549,0.4552,0.4554,0,0.3498,0.3527,0.359,0.3658,0.3684,0.3725,0.384,0.3889,0.4018,0.4088,0.4193,0.4256,0.4398,0.4348,0.4522,0.4468,0.4504,0.4548,0.4553,0.4473,0.4391,0.42,0.4233,0.4587,0.4584,0.4582,0.458,0,0.3471,0.3544,0.3591,0.3607,0.3689,0.3747,0.3796,0.3919,0.3996,0.4161,0.4255,0.4379,0.4483,0.4556,0.4655,0.4617,0.482,0.4756,0.4688,0.4682,0.4419,0.4383,0.4845,0.4844,0.4844,0.4843,0.4843,0,0.3462,0.3498,0.3579,0.3595,0.3648,0.3724,0.3823,0.3895,0.4042,0.4131,0.4282,0.4392,0.4546,0.4667,0.4712,0.4781,0.4857,0.4744,0.4729,0.4415,0.4378,0.4723,0.4707,0.485,0.4849,0.4847,0.4846,0,0.3438,0.3487,0.3527,0.3605,0.3645,0.368,0.3832,0.3889,0.4049,0.4184,0.426,0.448,0.4662,0.477,0.4925,0.486,0.493,0.4906,0.4547,0.4485,0.4753,0.4736,0.4894,0.4892,0.4891,0.4889,0.4888,0,0.3397,0.3436,0.3522,0.3549,0.3593,0.3681,0.3733,0.3881,0.395,0.4213,0.4252,0.4519,0.4626,0.4835,0.4833,0.4896,0.4948,0.4553,0.4397,0.4794,0.4763,0.4748,0.4734,0.407,0.4062,0.4056,0.4051,0,0.3297,0.336,0.3386,0.3496,0.3551,0.3592,0.3677,0.3736,0.3895,0.4043,0.4209,0.4345,0.4559,0.449,0.4569,0.454,0.4523,0.4425,0.4944,0.4098,0.4026,0.3993,0.4004,0.3994,0.4,0.4004,0.4007,0.4009,0.3196,0.3186,0.3272,0.3376,0.3442,0.3442,0.3439,0.3532,0.3621,0.3727,0.3972,0.4053,0.4146,0.4131,0.4033,0.3984,0.4288,0.4075,0.4091,0.4114,0.3974,0.39,0.3822,0.3826,0.383,0.3833,0.3836,0,0.3024,0.3053,0.314,0.3196,0.3238,0.3339,0.3346,0.3281,0.3295,0.3465,0.3581,0.3389,0.3384,0.3502,0.335,0.335,0.3274,0.321,0.3074,0.3137,0.3191,0.2996,0.2589,0.2584,0.258,0.2576,0,0,0.2917,0.2901,0.297,0.2968,0.305,0.2959,0.2924,0.2874,0.2912,0.2886,0.295,0.3214,0.3403,0.2935,0.2894,0.2713,0.2886,0.2612,0.3628,0.3532,0.3579,0.3728,0.3505,0,0,0,0,0]},{"header":{"parameterUnit":"m.s-1","parameterCategory":2,"la1":30.2991,"la2":30.254,"lo1":-89.0895,"lo2":-89.0444,"dy":0.0017,"dx":0.0017,"nx":28,"ny":28,"refTime":"2024-06-22T03:00:00:Z","depth":"2","parameterNumber":3,"parameterNumberName":"V-component_of_CURRENTS"},"data":[0,0,0,0,0,0,0,0,0,0,0,0,0,0,0,0,0,0,0,0,0,0,0,0,0,0,0,0,0,0,0,0,0,0,0,0,0,0,0,0,0,0,0,0,0,0,0,0,0,0,0,0,0,0,0,0,0,0,0.0169,0.0169,0,0.0082,0.008,0.0078,-0.0011,-0.0011,-0.0012,-0.0012,-0.0098,-0.01,-0.0102,0,0,0,0,0,0,0,0,0,0,0,0,0,0.0172,0.0173,0.0169,0.0169,0.0169,0.0082,0.008,0.0078,-0.0011,-0.0011,-0.0012,-0.0012,-0.0097,-0.01,-0.0102,0,0,0,0,0,0,0,0,0,0,0,0,0,0.0128,0.0173,0.0169,0.0121,0.0116,0.0083,0.008,0.0077,-0.0011,-0.0011,-0.0012,-0.0012,-0.0097,-0.0099,-0.0102,-0.0109,0,0,-0.0111,-0.0113,0,0,0,0,0,0,0,0,0.0131,0.0127,0.0128,0.0124,0.0119,0.0054,0.005,0.0018,-0.0011,0.0028,-0.0012,-0.0013,-0.004,-0.0048,-0.0077,-0.0114,-0.0117,-0.0112,-0.0113,-0.0115,-0.0115,0,0,0,0,0,0,0,0.0134,0.013,0.0125,0.0128,0.0123,0.0075,0.0067,0.0042,-0.001,0.0024,0.002,0.0025,-0.0044,-0.0074,-0.0079,-0.0118,-0.0111,-0.0114,-0.0116,-0.0117,-0.017,-0.017,0,0,0,0,0,0,0.0169,0.0133,0.0128,0.0124,0.0134,0.0076,0.0067,0.0068,-0.0009,-0.0019,0.0026,0.0022,-0.0068,-0.0076,-0.0082,-0.0078,-0.0115,-0.0117,-0.0119,-0.017,-0.017,-0.017,0,0,0,0,0,0,0.0169,0.0169,0.0132,0.0134,0.0127,0.0078,0.0078,0.0067,0.0036,-0.0007,-0.0018,0.0009,-0.0069,-0.0078,-0.0097,-0.0082,-0.0119,-0.0121,-0.0171,-0.017,-0.017,-0.008,0,0,0,0,0,0,0.0169,0.0169,0.0171,0.0136,0.0129,0.0115,0.0079,0.0066,0.0045,0.0038,-0.0024,-0.0033,-0.007,-0.0092,-0.01,-0.0087,-0.0124,-0.0171,-0.017,-0.017,-0.0083,-0.0076,-0.007,0,0,0,0,0,0.017,0.0185,0.0171,0.0171,0.0136,0.0117,0.0107,0.0063,0.0046,0.0032,-0.0001,-0.0032,-0.0094,-0.0094,-0.0103,-0.0091,-0.0171,-0.0171,-0.017,-0.0086,-0.0077,-0.007,0,0,0,0,0,0,0.0184,0.0177,0.0161,0.0172,0.0148,0.0105,0.0101,0.007,0.0029,0.0028,-0.0024,-0.0035,-0.0048,-0.0082,-0.008,-0.0106,-0.0139,-0.014,-0.0072,-0.0064,-0.0058,-0.0033,-0.0126,0,0,0,0,0,0.0193,0.0206,0.018,0.0191,0.0184,0.0141,0.0127,0.01,0.0069,0.0048,0.0007,-0.003,-0.0053,-0.0067,-0.0099,-0.0107,-0.0141,-0.0108,-0.0102,-0.0096,-0.0083,-0.0119,-0.0114,-0.0167,-0.0167,-0.0167,0,0,0.0203,0.0205,0.0209,0.0196,0.0176,0.0178,0.0129,0.0119,0.0118,0.005,0.0032,-0.0009,-0.0051,-0.0063,-0.0072,-0.0088,-0.01,-0.0095,-0.0089,-0.0079,-0.0117,-0.0112,-0.0108,-0.0166,-0.0167,-0.0167,0,0,0.0243,0.0232,0.0254,0.0242,0.023,0.0208,0.0211,0.0167,0.0141,0.0127,0.0079,0.0051,0.0009,-0.0021,-0.0037,-0.0013,-0.0065,-0.0029,0.0027,-0.0008,-0.0004,-0.0,-0.0039,-0.0039,-0.0024,-0.0024,-0.0024,0,0.025,0.0281,0.0254,0.0273,0.0281,0.0231,0.0252,0.0221,0.0174,0.0168,0.0138,0.0076,0.0034,0.0028,0.0032,0.0004,-0.0028,0.0005,0.0002,0.0005,0.0007,-0.0034,-0.0035,-0.002,-0.002,-0.0021,-0.0021,0,0.0304,0.0325,0.0342,0.0355,0.0352,0.0366,0.0336,0.0319,0.0292,0.026,0.0237,0.0172,0.0139,0.0115,0.0083,0.0077,0.0045,0.0015,-0.0012,0.0018,-0.0027,-0.0031,-0.0013,-0.0015,-0.0016,-0.0017,0,0,0.0332,0.0371,0.0378,0.0407,0.0401,0.0411,0.0418,0.0412,0.0425,0.0362,0.0374,0.0312,0.0264,0.0242,0.0184,0.0148,0.0127,0.0095,0.0091,0.0067,0.0047,0.0004,-0.0004,0.0096,0.0096,0.0096,0.0009,0,0.0381,0.0453,0.0451,0.0515,0.0549,0.0519,0.0535,0.0521,0.0494,0.0485,0.0415,0.0403,0.0317,0.0309,0.0255,0.0172,0.0122,0.0153,0.0012,0.0008,-0.0025,-0.0008,0.0031,-0.0045,0.0005,0.0004,0.0004,0,0.0431,0.0482,0.0558,0.0616,0.0626,0.0652,0.0683,0.0688,0.0659,0.0638,0.0598,0.0537,0.0487,0.0406,0.0268,0.0292,0.0177,0.0096,0.009,0.0019,-0.0041,-0.0069,-0.0054,-0.0003,-0.0002,-0.0002,-0.0001,0,0.0484,0.0555,0.063,0.0648,0.0695,0.0727,0.0751,0.074,0.0772,0.0745,0.0769,0.0665,0.0648,0.0494,0.0315,0.0298,0.0153,0.0108,-0.0048,-0.0053,-0.0062,-0.0068,-0.0004,-0.0004,-0.0004,-0.0004,-0.0004,0,0.0541,0.0599,0.0669,0.071,0.0808,0.0806,0.0891,0.0888,0.0907,0.0976,0.0862,0.0894,0.0671,0.0557,0.0364,0.0156,0.0185,-0.0031,-0.0074,-0.0032,-0.0033,-0.0031,-0.0033,-0.0007,-0.0006,-0.0006,-0.0005,0,0.0584,0.0622,0.0715,0.0796,0.0839,0.0907,0.1014,0.1067,0.1072,0.1161,0.1172,0.1083,0.0947,0.0694,0.0452,0.0245,0.0034,-0.006,0.0001,-0.0034,-0.0163,-0.016,-0.0226,-0.0228,-0.023,-0.0232,-0.0233,0,0.0613,0.0668,0.0794,0.0869,0.0916,0.1028,0.111,0.1151,0.1227,0.1294,0.1354,0.1252,0.1197,0.0806,0.0433,0.0076,0.0028,-0.0142,-0.0176,-0.0149,-0.0184,-0.0178,-0.0172,-0.0156,-0.0157,-0.0157,-0.0158,0,0.0677,0.0717,0.0799,0.0958,0.1068,0.1205,0.1334,0.1424,0.1491,0.1575,0.1668,0.1634,0.1266,0.0918,0.0398,0.0154,-0.0082,-0.0163,-0.0138,-0.0108,-0.0091,-0.0123,-0.0118,-0.0162,-0.0161,-0.0161,-0.0161,-0.0161,0.0728,0.08,0.0916,0.1061,0.1188,0.1367,0.1496,0.1637,0.1797,0.1918,0.1881,0.183,0.1416,0.0764,0.0336,-0.0118,-0.01,-0.0263,-0.0258,-0.0254,-0.0231,-0.0219,-0.031,-0.031,-0.031,-0.0311,-0.0311,0,0.0804,0.0893,0.1025,0.1201,0.1335,0.1409,0.1634,0.1757,0.1964,0.2054,0.211,0.1719,0.1313,0.0845,0.0176,-0.0234,-0.026,-0.036,-0.0291,-0.0284,-0.0278,-0.0255,-0.0341,-0.0343,-0.0344,-0.0345,0,0,0.0855,0.099,0.1058,0.1296,0.142,0.163,0.1767,0.1957,0.2071,0.2153,0.212,0.2005,0.1452,0.0964,0.042,0.0049,-0.0028,-0.0035,0.0033,0.0187,0.0197,-0.018,-0.0132,0,0,0,0,0]}],[{"header":{"parameterUnit":"m.s-1","parameterCategory":2,"la1":30.2991,"la2":30.254,"lo1":-89.0895,"lo2":-89.0444,"dy":0.0017,"dx":0.0017,"nx":28,"ny":28,"refTime":"2024-06-22T03:00:00:Z","depth":"4","parameterNumber":2,"parameterNumberName":"U-component_of_CURRENTS"},"data":[0,0,0,0,0,0,0,0,0,0,0,0,0,0,0,0,0,0,0,0,0,0,0,0,0,0,0,0,0,0,0,0,0,0,0,0,0,0,0,0,0,0,0,0,0,0,0,0,0,0,0,0,0,0,0,0,0,0,0.1789,0.1791,0,0.1917,0.1918,0.1919,0.1998,0.2,0.2001,0.2002,0.2133,0.2135,0.2137,0,0,0,0,0,0,0,0,0,0,0,0,0,0.1691,0.1691,0.1789,0.1791,0.1793,0.1917,0.1918,0.1919,0.1998,0.2,0.2001,0.2002,0.2132,0.2135,0.2138,0,0,0,0,0,0,0,0,0,0,0,0,0,0.176,0.1691,0.1788,0.1853,0.1861,0.1917,0.1918,0.1919,0.1998,0.2,0.2001,0.2003,0.2131,0.2134,0.2138,0.2127,0,0,0.2149,0.2151,0,0,0,0,0,0,0,0,0.1756,0.1762,0.1842,0.1849,0.1858,0.195,0.1932,0.1991,0.1997,0.1938,0.2002,0.2004,0.2076,0.2084,0.2093,0.2133,0.2138,0.2149,0.2152,0.2153,0.2154,0,0,0,0,0,0,0,0.1751,0.1758,0.1832,0.1844,0.1854,0.1904,0.1914,0.1943,0.199,0.1943,0.1951,0.1977,0.2079,0.2089,0.2097,0.214,0.2149,0.2153,0.2155,0.2156,0.2356,0.2359,0,0,0,0,0,0,0.1744,0.1753,0.1828,0.1837,0.1819,0.1904,0.1915,0.1913,0.199,0.2005,0.1976,0.1981,0.2082,0.2093,0.2102,0.2249,0.2153,0.2157,0.2159,0.2353,0.2357,0.236,0,0,0,0,0,0,0.1741,0.1748,0.1823,0.1806,0.182,0.1904,0.1901,0.1914,0.197,0.2016,0.203,0.2023,0.2084,0.2097,0.2183,0.2249,0.2158,0.2162,0.235,0.2354,0.2359,0.2444,0,0,0,0,0,0,0.1737,0.1745,0.1752,0.1804,0.1821,0.1886,0.19,0.1916,0.1984,0.1993,0.206,0.2071,0.2086,0.2178,0.2187,0.2253,0.2164,0.2346,0.2352,0.2357,0.2437,0.2451,0.2463,0,0,0,0,0,0.1732,0.1741,0.1751,0.1762,0.1822,0.1888,0.1901,0.1963,0.1985,0.2016,0.2075,0.2072,0.2222,0.2183,0.2193,0.2261,0.2343,0.235,0.2357,0.2431,0.2448,0.2462,0,0,0,0,0,0,0.1716,0.1752,0.1764,0.1785,0.1846,0.1906,0.1959,0.1982,0.2049,0.2075,0.2103,0.2119,0.2225,0.2228,0.2185,0.2339,0.2285,0.2294,0.2339,0.2354,0.2367,0.2363,0.2167,0,0,0,0,0,0.1709,0.1723,0.1772,0.1801,0.1838,0.19,0.194,0.1977,0.204,0.2073,0.2131,0.2193,0.2252,0.2292,0.2343,0.2415,0.242,0.247,0.2482,0.2493,0.25,0.257,0.2589,0.2384,0.2384,0.2383,0,0,0.1726,0.174,0.1759,0.18,0.1861,0.192,0.1929,0.2009,0.2065,0.2075,0.2196,0.2243,0.2283,0.2379,0.2426,0.2396,0.2555,0.2502,0.2511,0.2511,0.2579,0.2599,0.2617,0.2388,0.2388,0.2387,0,0,0.1762,0.1774,0.1804,0.185,0.1931,0.1965,0.1995,0.2081,0.2134,0.2225,0.2264,0.235,0.2438,0.2489,0.2517,0.2627,0.2623,0.2657,0.2717,0.2786,0.2803,0.2818,0.2846,0.2862,0.266,0.266,0.266,0,0.178,0.1806,0.1833,0.1879,0.1935,0.199,0.2054,0.2109,0.2215,0.2268,0.2282,0.2448,0.2487,0.2594,0.2646,0.2656,0.2683,0.2651,0.2801,0.2816,0.283,0.2855,0.2872,0.2665,0.2665,0.2664,0.2664,0,0.1833,0.1871,0.1911,0.1972,0.203,0.2101,0.2176,0.2253,0.2319,0.2371,0.2509,0.2569,0.2664,0.2701,0.2709,0.284,0.2824,0.2809,0.2755,0.2856,0.2875,0.2892,0.2672,0.267,0.2669,0.2668,0,0,0.183,0.1922,0.1942,0.1982,0.2084,0.2133,0.2244,0.2346,0.2419,0.2527,0.2631,0.2748,0.279,0.2825,0.2861,0.2925,0.3048,0.2922,0.2923,0.2936,0.319,0.3,0.2999,0.3071,0.3075,0.3078,0.3161,0,0.1872,0.1946,0.1995,0.2102,0.2153,0.224,0.2324,0.2423,0.2516,0.2631,0.2714,0.2828,0.2832,0.2898,0.2967,0.304,0.3098,0.3025,0.3102,0.3103,0.2912,0.3014,0.3089,0.3173,0.3177,0.318,0.3182,0,0.1898,0.1942,0.2037,0.2139,0.2177,0.2257,0.24,0.2484,0.2637,0.2711,0.2837,0.2908,0.3049,0.3025,0.3182,0.3144,0.3182,0.3212,0.3216,0.3018,0.2944,0.3056,0.3211,0.3209,0.3206,0.3204,0.3203,0,0.1841,0.1969,0.2038,0.208,0.2207,0.2291,0.2378,0.2524,0.2601,0.2788,0.2867,0.3018,0.312,0.3201,0.3289,0.3259,0.3434,0.3385,0.3238,0.3224,0.3328,0.3311,0.3485,0.3485,0.3485,0.3485,0.3484,0,0.1815,0.1875,0.2029,0.2059,0.2156,0.2274,0.2395,0.2496,0.2659,0.2748,0.2913,0.2999,0.318,0.3296,0.3335,0.3341,0.3474,0.3263,0.3244,0.3361,0.3348,0.3339,0.3321,0.3488,0.3487,0.3486,0.3486,0,0.1707,0.1814,0.1893,0.2058,0.2122,0.2193,0.2384,0.2456,0.2631,0.2762,0.2833,0.304,0.3188,0.3323,0.347,0.3382,0.3415,0.3382,0.3506,0.3491,0.3138,0.3124,0.3199,0.3193,0.3188,0.3184,0.318,0,0.1637,0.167,0.1858,0.1919,0.2004,0.2141,0.222,0.2415,0.2499,0.2749,0.2791,0.3017,0.3135,0.3183,0.3331,0.3393,0.336,0.333,0.3219,0.314,0.3116,0.3109,0.3102,0.3173,0.3171,0.317,0.3169,0,0.1492,0.1588,0.1654,0.1782,0.1896,0.1985,0.2136,0.2184,0.2404,0.2591,0.2697,0.2792,0.2951,0.3064,0.3158,0.3185,0.3321,0.3278,0.3286,0.3182,0.311,0.3088,0.3087,0.3152,0.3154,0.3156,0.3157,0,0.1388,0.1395,0.1515,0.162,0.1747,0.1807,0.1905,0.2029,0.2137,0.2435,0.2465,0.2703,0.2916,0.2958,0.3034,0.3067,0.3006,0.2879,0.2907,0.2927,0.2804,0.267,0.2575,0,0,0,0,0,0.1279,0.1278,0.1343,0.1451,0.1578,0.1659,0.1832,0.1942,0.2181,0.2193,0.2327,0.2465,0.259,0.2712,0.2696,0.2907,0.3011,0.287,0.2877,0.3058,0.3077,0.2959,0,0,0,0,0,0,0.12,0.1244,0.1275,0.1306,0.1357,0.1464,0.157,0.1729,0.1761,0.2018,0.2114,0.2298,0.2475,0.2585,0.2644,0.2682,0.263,0.3028,0.3021,0.3047,0.3065,0.308,0.2965,0,0,0,0,0]},{"header":{"parameterUnit":"m.s-1","parameterCategory":2,"la1":30.2991,"la2":30.254,"lo1":-89.0895,"lo2":-89.0444,"dy":0.0017,"dx":0.0017,"nx":28,"ny":28,"refTime":"2024-06-22T03:00:00:Z","depth":"4","parameterNumber":3,"parameterNumberName":"V-component_of_CURRENTS"},"data":[0,0,0,0,0,0,0,0,0,0,0,0,0,0,0,0,0,0,0,0,0,0,0,0,0,0,0,0,0,0,0,0,0,0,0,0,0,0,0,0,0,0,0,0,0,0,0,0,0,0,0,0,0,0,0,0,0,0,0.0338,0.0338,0,0.027,0.0269,0.0268,0.0225,0.0225,0.0225,0.0225,0.0147,0.0145,0.0143,0,0,0,0,0,0,0,0,0,0,0,0,0,0.032,0.0321,0.0338,0.0337,0.0337,0.027,0.0269,0.0267,0.0225,0.0225,0.0225,0.0225,0.0148,0.0145,0.0142,0,0,0,0,0,0,0,0,0,0,0,0,0,0.0294,0.0322,0.0338,0.0311,0.0309,0.027,0.0269,0.0267,0.0225,0.0225,0.0225,0.0226,0.0149,0.0145,0.0142,0.0115,0,0,0.0132,0.013,0,0,0,0,0,0,0,0,0.0295,0.0294,0.0316,0.0313,0.031,0.026,0.0234,0.0217,0.0225,0.0251,0.0225,0.0226,0.0187,0.018,0.016,0.0111,0.0108,0.0131,0.0129,0.0128,0.0127,0,0,0,0,0,0,0,0.0297,0.0296,0.0306,0.0315,0.0312,0.0265,0.0262,0.023,0.0214,0.0249,0.0247,0.0247,0.0185,0.0163,0.0158,0.0107,0.0131,0.0128,0.0126,0.0125,0.0043,0.0043,0,0,0,0,0,0,0.0321,0.0298,0.0308,0.0304,0.0309,0.0266,0.0263,0.0272,0.0215,0.0208,0.0247,0.0245,0.0169,0.0162,0.0155,0.0135,0.0128,0.0125,0.0123,0.0043,0.0043,0.0043,0,0,0,0,0,0,0.0321,0.0323,0.0311,0.0303,0.0299,0.0268,0.0278,0.0271,0.0255,0.0214,0.0206,0.024,0.0169,0.016,0.0131,0.0131,0.0123,0.012,0.0043,0.0043,0.0043,0.0084,0,0,0,0,0,0,0.0321,0.0324,0.0339,0.0305,0.03,0.0285,0.0278,0.0269,0.0256,0.0254,0.0205,0.0198,0.0169,0.0136,0.0128,0.0126,0.0117,0.0043,0.0043,0.0043,0.0083,0.0085,0.0087,0,0,0,0,0,0.0321,0.0327,0.0341,0.0342,0.0323,0.0285,0.0277,0.0252,0.0256,0.024,0.0218,0.02,0.0129,0.0134,0.0123,0.0121,0.0043,0.0043,0.0043,0.0082,0.0085,0.0087,0,0,0,0,0,0,0.0311,0.0323,0.0337,0.0344,0.0323,0.028,0.0268,0.0258,0.0226,0.023,0.0195,0.0185,0.0159,0.0134,0.0141,0.0096,0.0084,0.0081,0.0117,0.0119,0.0122,0.0128,0.0114,0,0,0,0,0,0.0326,0.0345,0.0333,0.0339,0.0334,0.0308,0.0293,0.0277,0.0247,0.0233,0.0208,0.0179,0.0147,0.0131,0.0098,0.0073,0.0039,0.0065,0.0068,0.007,0.0067,0.002,0.0018,0.0041,0.0041,0.0042,0,0,0.0322,0.0334,0.0342,0.0341,0.0326,0.0317,0.0297,0.0275,0.0267,0.0231,0.0214,0.0184,0.0142,0.0114,0.01,0.0095,0.0044,0.0069,0.0072,0.0068,0.0019,0.0017,0.0015,0.0041,0.0041,0.0041,0,0,0.0317,0.0338,0.0351,0.0343,0.0336,0.0319,0.032,0.0288,0.0274,0.0253,0.0228,0.0199,0.0156,0.0124,0.0102,0.0096,0.0058,0.009,0.0105,0.006,0.0057,0.0055,0.0008,0.0001,0.0092,0.0092,0.0092,0,0.0314,0.0343,0.034,0.0348,0.0352,0.0328,0.0332,0.0306,0.027,0.0263,0.0255,0.0193,0.0158,0.0122,0.0118,0.0101,0.0069,0.0101,0.0063,0.006,0.0056,0.0009,0.0001,0.0094,0.0094,0.0094,0.0093,0,0.032,0.0345,0.0345,0.0368,0.0361,0.0355,0.0337,0.0324,0.0316,0.0295,0.0262,0.0211,0.0179,0.016,0.0135,0.0098,0.0081,0.0072,0.0059,0.0057,0.0007,-0.0003,0.0097,0.0096,0.0096,0.0095,0,0,0.0311,0.0348,0.0352,0.0385,0.038,0.0379,0.0365,0.0351,0.0358,0.031,0.0308,0.0239,0.0219,0.0193,0.0157,0.0111,0.0058,0.0085,0.0082,0.0043,-0.0046,-0.0048,-0.0059,0.0045,0.0043,0.0042,-0.0072,0,0.0324,0.0367,0.0372,0.0408,0.0433,0.0418,0.0416,0.0398,0.0378,0.0366,0.0301,0.0285,0.023,0.0226,0.0166,0.0094,0.0036,0.009,-0.0043,-0.0047,-0.0045,-0.0069,0.0038,-0.0079,-0.0081,-0.0083,-0.0084,0,0.0337,0.0375,0.042,0.0471,0.0479,0.049,0.0508,0.0505,0.0466,0.045,0.0403,0.0357,0.0284,0.0247,0.0096,0.0135,0.0044,-0.0024,-0.003,-0.0053,-0.0066,-0.0078,-0.0101,-0.01,-0.0099,-0.0098,-0.0096,0,0.0366,0.0412,0.0465,0.0479,0.0516,0.0533,0.0553,0.0534,0.0557,0.0513,0.0524,0.0412,0.0386,0.0247,0.0098,0.0099,-0.0069,-0.0082,-0.0181,-0.0182,-0.0163,-0.0159,-0.0202,-0.0202,-0.0202,-0.0201,-0.0201,0,0.0393,0.0436,0.0491,0.0523,0.0597,0.0596,0.0656,0.065,0.0654,0.0691,0.0586,0.0578,0.0386,0.0268,0.0114,-0.0061,-0.0062,-0.0189,-0.0214,-0.0143,-0.0136,-0.017,-0.0165,-0.0206,-0.0205,-0.0204,-0.0203,0,0.0422,0.045,0.0523,0.0585,0.0619,0.0675,0.0761,0.0796,0.0787,0.0831,0.0828,0.0708,0.0548,0.034,0.0116,-0.0017,-0.0195,-0.026,-0.0171,-0.0188,-0.0284,-0.0276,-0.0382,-0.0383,-0.0384,-0.0385,-0.0385,0,0.0444,0.0484,0.059,0.0648,0.0686,0.0776,0.0838,0.0868,0.0917,0.0912,0.0938,0.0797,0.0688,0.0374,0.0137,-0.0174,-0.0218,-0.0318,-0.0313,-0.029,-0.0305,-0.0294,-0.0285,-0.0387,-0.0387,-0.0387,-0.0387,0,0.0492,0.0527,0.0595,0.0719,0.0804,0.0909,0.1004,0.1055,0.1085,0.1078,0.1037,0.0858,0.067,0.0393,0.0146,-0.0076,-0.0257,-0.0329,-0.0329,-0.0325,-0.0298,-0.0308,-0.0298,-0.0391,-0.039,-0.039,-0.039,0,0.0535,0.0588,0.0677,0.0789,0.0895,0.1003,0.1056,0.1115,0.1164,0.1156,0.1136,0.0918,0.0786,0.0443,0.0219,-0.0007,-0.0068,-0.0141,-0.0152,-0.0152,-0.0058,0.0012,-0.0014,0,0,0,0,0,0.0573,0.0634,0.0739,0.0854,0.0956,0.1023,0.1145,0.1182,0.1218,0.1209,0.118,0.1003,0.0661,0.0506,0.0282,0.018,-0.0123,-0.0093,-0.0215,-0.0408,-0.0405,-0.0335,0,0,0,0,0,0,0.0592,0.0689,0.0743,0.0886,0.0964,0.1086,0.1165,0.1198,0.1199,0.1195,0.1022,0.0933,0.0602,0.0785,0.027,0.0199,0.0088,-0.0254,-0.0259,-0.041,-0.0407,-0.0404,-0.0331,0,0,0,0,0]}]]